TimePST,TemperatureF,Dew PointF,Humidity,Sea Level PressureIn,VisibilityMPH,Wind Direction,Wind SpeedMPH,Gust SpeedMPH,PrecipitationIn,Events,Conditions,WindDirDegrees,DateUTC
12:53 AM,10.0,6.1,84,30.32,10.0,NW,3.5,-,N/A,,Clear,320,2013-01-22 08:53:00
1:53 AM,12.0,8.1,84,30.30,8.0,Calm,Calm,-,N/A,,Clear,0,2013-01-22 09:53:00
2:53 AM,14.0,9.0,80,30.28,10.0,East,4.6,-,N/A,,Clear,80,2013-01-22 10:53:00
3:53 AM,10.0,6.1,84,30.29,10.0,NW,3.5,-,N/A,,Clear,320,2013-01-22 11:53:00
4:53 AM,10.9,8.1,88,30.28,10.0,Calm,Calm,-,N/A,,Clear,0,2013-01-22 12:53:00
5:53 AM,9.0,6.1,88,30.33,10.0,East,4.6,-,N/A,,Clear,90,2013-01-22 13:53:00
6:00 AM,8.6,6.8,92,30.18,10.0,East,3.5,-,N/A,,Clear,90,2013-01-22 14:00:00
6:53 AM,6.1,3.9,91,30.34,10.0,North,4.6,-,N/A,,Clear,350,2013-01-22 14:53:00
7:53 AM,7.0,3.9,87,30.34,10.0,Calm,Calm,-,N/A,,Mostly Cloudy,0,2013-01-22 15:53:00
8:53 AM,10.0,6.1,84,30.35,10.0,Calm,Calm,-,N/A,,Mostly Cloudy,0,2013-01-22 16:53:00
9:53 AM,19.0,12.9,77,30.31,10.0,Calm,Calm,-,N/A,,Scattered Clouds,0,2013-01-22 17:53:00
10:53 AM,23.0,14.0,68,30.30,8.0,Calm,Calm,-,N/A,,Mostly Cloudy,0,2013-01-22 18:53:00
11:53 AM,28.0,15.1,58,30.26,8.0,Calm,Calm,-,N/A,,Mostly Cloudy,0,2013-01-22 19:53:00
12:53 PM,30.0,19.0,64,30.22,10.0,NNW,3.5,-,N/A,,Mostly Cloudy,330,2013-01-22 20:53:00
1:53 PM,30.9,19.0,61,30.19,10.0,North,4.6,-,N/A,,Mostly Cloudy,360,2013-01-22 21:53:00
2:53 PM,32.0,19.0,59,30.16,10.0,Calm,Calm,-,N/A,,Mostly Cloudy,0,2013-01-22 22:53:00
3:53 PM,30.9,18.0,59,30.17,10.0,North,5.8,-,N/A,,Mostly Cloudy,350,2013-01-22 23:53:00
4:53 PM,30.0,19.0,64,30.17,10.0,NW,3.5,-,N/A,,Mostly Cloudy,320,2013-01-23 00:53:00
5:53 PM,28.0,17.1,63,30.17,10.0,NNW,4.6,-,N/A,,Mostly Cloudy,330,2013-01-23 01:53:00
6:53 PM,28.0,17.1,63,30.17,7.0,Calm,Calm,-,N/A,,Mostly Cloudy,0,2013-01-23 02:53:00
7:53 PM,25.0,18.0,75,30.17,7.0,Calm,Calm,-,N/A,,Mostly Cloudy,0,2013-01-23 03:53:00
8:53 PM,26.1,18.0,71,30.16,7.0,Calm,Calm,-,N/A,,Mostly Cloudy,0,2013-01-23 04:53:00
9:53 PM,26.1,17.1,69,30.12,7.0,Calm,Calm,-,N/A,,Mostly Cloudy,0,2013-01-23 05:53:00
10:53 PM,27.0,19.0,72,30.12,10.0,NNW,9.2,-,N/A,,Clear,330,2013-01-23 06:53:00
11:53 PM,28.9,18.0,64,30.09,10.0,Variable,3.5,-,N/A,,Clear,0,2013-01-23 07:53:00